Location: Smoky Mountain Stargaze
(35.4252°N, 83.3329°W)
Time: 14:47:28
(UTC-05:00)

Amateur Radio Satellites - All Passes

Search period start: 21 January 2017 14:17
Search period end: 22 January 2017 14:17
Location: Smoky Mountain Stargaze, 35.4252°N, 83.3329°W

Satellite Date Start Highest point End Downlink Frequencies (MHz)
Time Altitude Azimuth
UKube-1 21 Jan 14:27:48 14:30:51 19° 292° (WNW) 14:33:53 .
ITAMSAT 1 21 Jan 14:31:28 14:36:22 45° 72° (ENE) 14:41:17 435.822/435.867
DX 1 21 Jan 14:31:50 14:33:50 13° 295° (WNW) 14:35:51 434.975-435.025
AIST 1 21 Jan 14:42:43 14:46:50 40° 280° (W) 14:50:58
Cosmos 2504 21 Jan 14:48:21 14:56:48 56° 91° (E) 15:04:46 435.465 / 435.565
ITUPSAT 1 21 Jan 14:48:32 14:52:57 36° 98° (E) 14:57:21 437.325
CUSAT 1 21 Jan 14:53:33 15:01:30 72° 265° (W) 15:08:33 437.405
AO-85 21 Jan 14:54:32 14:58:17 23° 307° (NW) 15:01:50 145.980
MOZHAYETS 4 21 Jan 15:08:45 15:11:50 17° 94° (E) 15:14:54
O/OREOS (USA 219) 21 Jan 15:14:44 15:15:45 11° 56° (NE) 15:16:45 437.305
BEESAT 21 Jan 15:22:06 15:26:55 87° 105° (ESE) 15:31:43 436.000
SWISSCUBE 21 Jan 15:23:53 15:28:42 80° 284° (WNW) 15:33:29 437.505
JUGNU 21 Jan 15:26:45 15:30:27 17° 179° (S) 15:34:11 437.505
BEESAT 3 21 Jan 15:26:51 15:29:53 22° 111° (ESE) 15:32:56 437.485
BRITE-PL 21 Jan 15:30:38 15:34:00 16° 65° (ENE) 15:37:21 437.365/2234.400
KKS-1 21 Jan 15:42:27 15:42:53 10° 92° (E) 15:43:18 437.445
AO-7 21 Jan 15:48:22 15:56:35 62° 256° (WSW) 16:04:53 29.400- 29.500
DANDE 21 Jan 15:53:49 16:01:49 70° 265° (W) 16:10:02 436.750
M-CUBED/EXP-1 PRIME 21 Jan 16:01:41 16:03:30 14° 99° (E) 16:05:18 437.505
SO-50 21 Jan 16:05:04 16:08:17 19° 49° (NE) 16:11:29 436.795
ITAMSAT 1 21 Jan 16:12:33 16:16:00 18° 266° (W) 16:19:29 435.822/435.867
BEESAT 2 21 Jan 16:13:41 16:17:10 31° 113° (ESE) 16:20:42 435.950
YUBILEINY 21 Jan 16:14:56 16:21:52 25° 290° (WNW) 16:28:53 435.215
ITUPSAT 1 21 Jan 16:26:57 16:30:30 21° 293° (WNW) 16:34:03 437.325
STARS 21 Jan 16:30:06 16:32:55 17° 94° (E) 16:35:42 437.465
AUBIESAT-1 21 Jan 16:36:14 16:39:17 34° 103° (ESE) 16:42:18 437.475
Cubesat XI-IV 21 Jan 16:37:51 16:39:06 11° 61° (ENE) 16:40:22 437.490
CUSAT 1 21 Jan 16:40:00 16:41:51 11° 283° (WNW) 16:43:39 437.405
NOAA 15 21 Jan 16:41:17 16:43:37 13° 62° (ENE) 16:45:56 137.62
Cosmos 2504 21 Jan 16:43:17 16:50:25 28° 287° (WNW) 16:57:17 435.465 / 435.565
MOZHAYETS 4 21 Jan 16:44:47 16:49:05 39° 288° (WNW) 16:53:23
O/OREOS (USA 219) 21 Jan 16:51:07 16:55:36 69° 253° (WSW) 17:00:05 437.305
SRMSAT 21 Jan 16:58:32 17:02:05 16° 173° (S) 17:05:39 437.500
BEESAT 3 21 Jan 17:04:08 17:07:21 25° 307° (NW) 17:10:38 437.485
GOMX 1 21 Jan 17:04:25 17:09:38 50° 74° (ENE) 17:14:39 467.674
BRITE-PL 21 Jan 17:06:13 17:11:51 66° 259° (W) 17:17:29 437.365/2234.400
KKS-1 21 Jan 17:15:24 17:19:45 58° 286° (WNW) 17:24:05 437.445
JUGNU 21 Jan 17:15:41 17:18:43 14° 189° (S) 17:21:46 437.505
HORYU 2 21 Jan 17:19:41 17:24:05 85° 78° (ENE) 17:28:31 437.375
LilacSat-2 21 Jan 17:26:57 17:30:13 28° 72° (ENE) 17:33:30 437.200
CUTE-I 21 Jan 17:30:02 17:34:52 37° 70° (ENE) 17:39:42 437.470
CUBESAT XI-V 21 Jan 17:33:30 17:38:12 82° 284° (WNW) 17:42:50 437.345
M-CUBED/EXP-1 PRIME 21 Jan 17:35:23 17:38:00 22° 294° (WNW) 17:40:34 437.505
DOVE 4 21 Jan 17:37:43 17:42:24 41° 73° (ENE) 17:46:52 437.250
DANDE 21 Jan 17:40:42 17:43:18 12° 280° (W) 17:45:57 436.750
SO-50 21 Jan 17:44:41 17:48:55 42° 246° (WSW) 17:53:06 436.795
BEESAT 2 21 Jan 17:52:09 17:55:00 19° 309° (NW) 17:57:53 435.950
HO-68 21 Jan 18:01:43 18:06:44 21° 60° (ENE) 18:11:45 435.675
STARS 21 Jan 18:05:21 18:09:20 35° 288° (WNW) 18:13:19 437.465
Cubesat XI-IV 21 Jan 18:13:04 18:18:23 85° 256° (WSW) 18:23:44 437.490
AUBIESAT-1 21 Jan 18:13:13 18:13:22 10° 298° (WNW) 18:13:31 437.475
NOAA 15 21 Jan 18:17:26 18:22:42 72° 257° (WSW) 18:28:02 137.62
CUTE 1.7 + AOD 2 21 Jan 18:21:06 18:22:52 12° 66° (ENE) 18:24:39 437.475
AIST 2 21 Jan 18:24:08 18:26:25 15° 109° (ESE) 18:28:43 435.215
NOAA 18 21 Jan 18:27:42 18:33:11 74° 74° (ENE) 18:38:41 137.9125
GOMX 1 21 Jan 18:44:17 18:47:50 18° 267° (W) 18:51:19 467.674
SRMSAT 21 Jan 18:46:46 18:50:32 17° 184° (S) 18:54:17 437.500
CANX-2 21 Jan 18:48:24 18:52:07 30° 72° (ENE) 18:55:52 2200.000
CINEMA 3 21 Jan 18:57:11 19:01:35 65° 76° (ENE) 19:05:50 145.822/145.860
SEEDS 21 Jan 18:57:14 19:00:27 21° 70° (ENE) 19:03:41 437.485
Cosmos 2499 21 Jan 18:58:55 19:06:10 33° 87° (E) 19:13:00 435.465 / 435.565
COMPASS 1 21 Jan 19:00:56 19:03:22 15° 68° (ENE) 19:05:48 437.405
LilacSat-2 21 Jan 19:02:18 19:04:31 15° 266° (W) 19:06:45 437.200
GONETS M04 21 Jan 19:05:09 19:12:15 29° 84° (E) 19:19:21
CUTE-I 21 Jan 19:10:47 19:14:57 23° 265° (W) 19:19:07 437.470
AAUSAT CUBESAT 2 21 Jan 19:10:53 19:13:16 15° 67° (ENE) 19:15:38 437.432
DOVE 4 21 Jan 19:16:44 19:20:09 18° 266° (W) 19:23:27 437.250
CUBEBUG 2 21 Jan 19:43:09 19:47:07 44° 74° (ENE) 19:51:03 437.445
HO-68 21 Jan 19:46:35 19:53:44 70° 257° (WSW) 20:00:56 435.675
STRAND 1 21 Jan 19:50:23 19:55:32 71° 102° (ESE) 20:00:40 437.568
CUTE 1.7 + AOD 2 21 Jan 19:54:08 19:58:13 48° 261° (W) 20:02:23 437.475
AIST 2 21 Jan 20:00:37 20:04:29 40° 304° (WNW) 20:08:27 435.215
FUNcube-1 21 Jan 20:01:04 20:04:17 22° 70° (ENE) 20:07:32 145.935
UWE-3 21 Jan 20:08:31 20:12:34 54° 75° (ENE) 20:16:36 435.000/436.395/437.385
NOAA 18 21 Jan 20:12:20 20:14:18 12° 268° (W) 20:16:17 137.9125
ZACube-1 21 Jan 20:24:08 20:28:06 47° 74° (ENE) 20:32:06 437.345
CANX-2 21 Jan 20:25:00 20:27:58 18° 266° (W) 20:30:58 2200.000
SEEDS 21 Jan 20:32:25 20:35:57 26° 264° (W) 20:39:33 437.485
COMPASS 1 21 Jan 20:34:39 20:38:33 37° 262° (W) 20:42:29 437.405
SRMSAT 21 Jan 20:37:01 20:38:55 11° 194° (SSW) 20:40:50 437.500
AAUSAT CUBESAT 2 21 Jan 20:44:29 20:48:22 38° 262° (W) 20:52:17 437.432
ISS 21 Jan 20:50:07 20:52:31 19° 129° (SE) 20:54:56 145.825
Cosmos 2499 21 Jan 20:51:01 20:59:01 45° 282° (WNW) 21:06:31 435.465 / 435.565
Oscar 11 21 Jan 20:57:27 21:01:45 79° 258° (WSW) 21:06:06 145.826/435.025
GONETS M04 21 Jan 21:00:06 21:08:31 53° 281° (WNW) 21:17:02
CUBEBUG 2 21 Jan 21:22:26 21:23:56 12° 268° (W) 21:25:25 437.445
RS-15 21 Jan 21:29:48 21:35:19 15° 96° (E) 21:40:55 29.354- 29.394
STRAND 1 21 Jan 21:31:56 21:34:03 13° 297° (WNW) 21:36:12 437.568
FUNcube-1 21 Jan 21:37:06 21:40:24 23° 264° (W) 21:43:44 145.935
TIGRISAT 21 Jan 21:38:03 21:40:14 13° 93° (E) 21:42:25 435.000
DELFI C3 21 Jan 21:48:32 21:52:28 58° 259° (W) 21:56:27 145.870
AO-85 21 Jan 21:49:32 21:50:50 11° 47° (NE) 21:52:07 145.980
ANTELSAT 21 Jan 21:52:34 21:56:01 21° 95° (E) 21:59:29 437.575/2403.000
HUMSAT D 21 Jan 21:57:48 22:01:53 88° 79° (E) 22:06:02 437.325/437.525
ZACube-1 21 Jan 22:03:34 22:04:38 11° 268° (W) 22:05:41 437.345
PRISM 21 Jan 22:09:10 22:13:15 66° 285° (WNW) 22:17:16 437.425
ISS 21 Jan 22:25:51 22:28:50 32° 324° (NW) 22:31:49 145.825
CUBEBUG 1 21 Jan 22:27:53 22:29:54 13° 66° (ENE) 22:31:54 437.445
JAS-2 21 Jan 22:33:07 22:39:25 29° 95° (E) 22:45:58 435.910
AISAT 21 Jan 22:47:55 22:50:18 14° 66° (ENE) 22:52:40 437.250
UNISAT 6 21 Jan 22:59:50 23:04:15 62° 284° (WNW) 23:08:45 437.425
BY70-1 21 Jan 23:02:20 23:05:13 52° 260° (W) 23:08:21 436.1900
DUCHIFAT 1 21 Jan 23:11:50 23:12:32 10° 92° (E) 23:13:14 145.980
TIGRISAT 21 Jan 23:12:48 23:17:05 47° 286° (WNW) 23:21:27 435.000
ESTCUBE 1 21 Jan 23:14:09 23:18:39 79° 78° (ENE) 23:23:13 437.505/2401.250
NANOSAT C BR1 21 Jan 23:16:46 23:19:01 14° 93° (E) 23:21:14 145.865
VELOX 1 21 Jan 23:19:28 23:23:21 30° 71° (ENE) 23:27:14 145.980
50 SAT 21 Jan 23:21:45 23:24:21 19° 70° (ENE) 23:26:58 437.505
AO-85 21 Jan 23:27:44 23:31:34 56° 244° (WSW) 23:35:25 145.980
ANTELSAT 21 Jan 23:28:47 23:32:40 30° 289° (WNW) 23:36:38 437.575/2403.000
RS-15 21 Jan 23:33:52 23:45:33 76° 114° (ESE) 23:57:47 29.354- 29.394
PCSat 21 Jan 23:35:13 23:39:13 21° 106° (ESE) 23:43:12 145.827
SPROUT 21 Jan 23:36:39 23:40:28 33° 72° (ENE) 23:44:15 437.525
UKube-1 21 Jan 23:43:22 23:46:23 19° 68° (ENE) 23:49:24 .
DX 1 21 Jan 23:46:34 23:50:18 28° 70° (ENE) 23:54:03 434.975-435.025
CUBEBUG 1 22 Jan 00:01:25 00:05:42 50° 260° (W) 00:09:59 437.445
QB50P1 22 Jan 00:08:25 00:12:37 67° 101° (ESE) 00:16:49 145.935-145.965
POLYITAN 1 22 Jan 00:13:03 00:17:18 78° 102° (ESE) 00:21:33 437.675
QB50P2 22 Jan 00:14:22 00:18:37 87° 104° (ESE) 00:22:52 145.880/145.840
JAS-2 22 Jan 00:17:25 00:24:29 53° 289° (WNW) 00:32:01 435.910
AISAT 22 Jan 00:22:03 00:26:19 46° 260° (W) 00:30:36 437.250
YUBILEINY 22 Jan 00:30:53 00:37:55 26° 71° (ENE) 00:44:53 435.215
POPSAT HIP 1 22 Jan 00:35:33 00:39:42 57° 285° (WNW) 00:43:51 437.405
DUCHIFAT 1 22 Jan 00:44:22 00:48:28 52° 285° (WNW) 00:52:33 145.980
PHONESAT 2.4 22 Jan 00:47:20 00:49:22 30° 151° (SSE) 00:51:24 2401.200-2431.200
Cosmos 2504 22 Jan 00:48:09 00:51:05 13° 65° (ENE) 00:53:58 435.465 / 435.565
NANOSAT C BR1 22 Jan 00:50:55 00:54:50 39° 287° (WNW) 00:58:46 145.865
AIST 1 22 Jan 00:52:50 00:56:40 32° 78° (ENE) 01:00:30
50 SAT 22 Jan 00:54:44 00:57:25 20° 264° (W) 01:00:07 437.505
VELOX 1 22 Jan 00:56:28 00:59:47 20° 265° (W) 01:03:07 145.980
TISAT 1 22 Jan 00:58:49 01:02:41 38° 73° (ENE) 01:06:33 437.305
BUGSAT 1 22 Jan 01:12:19 01:16:21 73° 285° (WNW) 01:20:25 437.445
SPROUT 22 Jan 01:13:38 01:16:25 17° 266° (W) 01:19:13 437.525
Cosmos 2491 22 Jan 01:16:59 01:24:05 29° 84° (E) 01:31:09 435.465 / 435.565
PCSat 22 Jan 01:17:05 01:22:14 44° 301° (WNW) 01:27:25 145.827
UKube-1 22 Jan 01:18:17 01:22:09 32° 262° (W) 01:26:03 .
BEESAT 3 22 Jan 01:22:52 01:26:51 67° 60° (ENE) 01:30:48 437.485
DX 1 22 Jan 01:23:07 01:26:26 21° 264° (W) 01:29:46 434.975-435.025
RS-15 22 Jan 01:48:45 01:59:14 34° 318° (NW) 02:10:07 29.354- 29.394
ITUPSAT 1 22 Jan 01:52:25 01:56:32 30° 70° (ENE) 02:00:40 437.325
Oscar 19 22 Jan 02:00:34 02:05:45 79° 103° (ESE) 02:10:53 437.125/150
MOZHAYETS 4 22 Jan 02:09:09 02:10:54 12° 65° (ENE) 02:12:40
BEESAT 2 22 Jan 02:11:13 02:15:16 82° 242° (WSW) 02:19:17 435.950
CUSAT 1 22 Jan 02:11:46 02:14:53 16° 80° (E) 02:18:25 437.405
PHONESAT 2.4 22 Jan 02:21:11 02:23:17 32° 347° (NNW) 02:25:21 2401.200-2431.200
BEESAT 22 Jan 02:25:13 02:29:55 70° 76° (ENE) 02:34:41 436.000
YUBILEINY 22 Jan 02:26:36 02:35:13 61° 269° (W) 02:43:45 435.215
SWISSCUBE 22 Jan 02:27:00 02:31:44 83° 77° (ENE) 02:36:32 437.505
Gurwin Techsat 1B 22 Jan 02:27:54 02:33:14 75° 102° (ESE) 02:38:32 435.225
AIST 1 22 Jan 02:31:24 02:33:56 16° 273° (W) 02:36:27
TISAT 1 22 Jan 02:36:14 02:38:26 14° 266° (W) 02:40:38 437.305
Cosmos 2504 22 Jan 02:38:10 02:45:31 89° 265° (W) 02:52:40 435.465 / 435.565
M-CUBED/EXP-1 PRIME 22 Jan 02:44:21 02:47:08 17° 64° (ENE) 02:49:48 437.505
ITAMSAT 1 22 Jan 02:48:05 02:51:56 21° 95° (E) 02:55:45 435.822/435.867
Cosmos 2491 22 Jan 03:11:57 03:20:21 53° 281° (WNW) 03:28:51 435.465 / 435.565
AUBIESAT-1 22 Jan 03:18:24 03:22:12 32° 68° (ENE) 03:25:48 437.475
DANDE 22 Jan 03:20:01 03:21:51 13° 80° (E) 03:23:54 436.750
ISS 22 Jan 03:21:07 03:22:00 11° 24° (NNE) 03:22:54 145.825
STARS 22 Jan 03:25:43 03:26:47 11° 64° (ENE) 03:27:51 437.465
ITUPSAT 1 22 Jan 03:30:30 03:34:19 24° 264° (W) 03:38:09 437.325
Oscar 19 22 Jan 03:42:49 03:44:21 11° 298° (WNW) 03:45:51 437.125/150
MOZHAYETS 4 22 Jan 03:43:01 03:47:30 58° 259° (W) 03:52:03
CUSAT 1 22 Jan 03:50:49 03:55:44 57° 283° (WNW) 04:02:12 437.405
AO-7 22 Jan 03:53:22 04:01:34 57° 103° (ESE) 04:09:41 29.400- 29.500
PHONESAT 2.4 22 Jan 03:55:43 03:57:32 20° 2° (N) 03:59:20 2401.200-2431.200
KKS-1 22 Jan 04:09:55 04:14:22 85° 75° (ENE) 04:18:50 437.445
Gurwin Techsat 1B 22 Jan 04:10:21 04:12:29 12° 298° (WNW) 04:14:38 435.225
RS-15 22 Jan 04:11:16 04:17:28 15° 352° (N) 04:23:43 29.354- 29.394
M-CUBED/EXP-1 PRIME 22 Jan 04:17:12 04:21:19 38° 256° (WSW) 04:25:14 437.505
AIST 2 22 Jan 04:24:24 04:28:31 48° 58° (ENE) 04:32:37 435.215
ITAMSAT 1 22 Jan 04:26:38 04:31:29 41° 289° (WNW) 04:36:20 435.822/435.867
CUBESAT XI-V 22 Jan 04:33:16 04:37:55 68° 76° (ENE) 04:42:36 437.345
Cosmos 2504 22 Jan 04:35:47 04:37:37 11° 282° (WNW) 04:39:27 435.465 / 435.565
AUBIESAT-1 22 Jan 04:53:33 04:56:34 18° 259° (W) 04:59:27 437.475
ISS 22 Jan 04:55:45 04:59:00 68° 41° (NE) 05:02:13 145.825
STARS 22 Jan 04:58:15 05:02:35 60° 259° (W) 05:06:54 437.465
DANDE 22 Jan 05:00:12 05:03:44 36° 287° (WNW) 05:08:22 436.750
GOMX 1 22 Jan 05:11:20 05:13:45 15° 92° (E) 05:16:08 467.674
HORYU 2 22 Jan 05:14:21 05:17:38 20° 95° (E) 05:20:55 437.375
BRITE-PL 22 Jan 05:15:14 05:19:53 52° 99° (E) 05:24:09 437.365/2234.400
GONETS M04 22 Jan 05:22:03 05:24:00 11° 61° (ENE) 05:25:55
O/OREOS (USA 219) 22 Jan 05:22:27 05:25:37 19° 101° (E) 05:28:48 437.305
PHONESAT 2.4 22 Jan 05:29:31 05:31:43 50° 19° (NNE) 05:33:54 2401.200-2431.200
DOVE 4 22 Jan 05:42:05 05:43:12 11° 92° (E) 05:44:19 437.250
AO-7 22 Jan 05:46:54 05:53:50 30° 300° (WNW) 06:00:45 29.400- 29.500
CUTE-I 22 Jan 05:50:50 05:54:32 19° 94° (E) 05:58:14 437.470
AIST 2 22 Jan 06:04:34 06:06:33 13° 252° (WSW) 06:08:30 435.215
SO-50 22 Jan 06:18:31 06:20:02 11° 107° (ESE) 06:21:32 436.795
RS-15 22 Jan 06:28:00 06:37:04 22° 30° (NNE) 06:45:56 29.354- 29.394
Cubesat XI-IV 22 Jan 06:33:28 06:38:38 50° 100° (E) 06:43:49 437.490
NOAA 15 22 Jan 06:35:44 06:40:57 55° 101° (E) 06:46:07 137.62
LilacSat-2 22 Jan 06:36:35 06:40:28 69° 102° (ESE) 06:44:19 437.200
Cosmos 2499 22 Jan 06:45:43 06:52:37 52° 79° (E) 06:59:29 435.465 / 435.565
GOMX 1 22 Jan 06:48:04 06:52:02 35° 288° (WNW) 06:55:50 467.674
HORYU 2 22 Jan 06:50:14 06:54:10 31° 289° (WNW) 06:58:07 437.375
NOAA 18 22 Jan 06:53:06 06:58:12 39° 99° (E) 07:03:16 137.9125
CINEMA 3 22 Jan 06:55:25 06:58:20 18° 95° (E) 07:01:18 145.822/145.860
BRITE-PL 22 Jan 06:55:34 06:57:45 13° 296° (WNW) 06:59:53 437.365/2234.400
O/OREOS (USA 219) 22 Jan 07:00:45 07:04:45 32° 296° (WNW) 07:08:47 437.305
STRAND 1 22 Jan 07:03:07 07:08:11 73° 75° (ENE) 07:13:17 437.568
PHONESAT 2.4 22 Jan 07:03:56 07:05:27 16° 212° (SSW) 07:06:58 2401.200-2431.200
GONETS M04 22 Jan 07:13:41 07:22:32 69° 81° (E) 07:31:19
DOVE 4 22 Jan 07:17:11 07:21:09 45° 286° (WNW) 07:25:06 437.250
HO-68 22 Jan 07:18:26 07:24:22 27° 96° (E) 07:30:14 435.675
CUTE-I 22 Jan 07:29:40 07:34:45 46° 288° (WNW) 07:39:50 437.470
CUBEBUG 2 22 Jan 07:38:16 07:40:07 12° 93° (E) 07:41:59 437.445
CUTE 1.7 + AOD 2 22 Jan 07:42:02 07:45:58 34° 97° (E) 07:49:51 437.475
SO-50 22 Jan 07:55:14 07:59:56 66° 301° (WNW) 08:04:36 436.795
UWE-3 22 Jan 08:02:02 08:04:31 15° 93° (E) 08:07:02 435.000/436.395/437.385
CANX-2 22 Jan 08:11:24 08:15:43 86° 283° (WNW) 08:20:00 2200.000
Cubesat XI-IV 22 Jan 08:14:41 08:18:17 19° 295° (WNW) 08:21:53 437.490
ZACube-1 22 Jan 08:16:55 08:18:47 12° 92° (E) 08:20:39 437.345
NOAA 15 22 Jan 08:16:56 08:20:13 17° 296° (WNW) 08:23:29 137.62
SEEDS 22 Jan 08:18:23 08:22:36 62° 100° (E) 08:26:47 437.485
COMPASS 1 22 Jan 08:20:09 08:24:07 40° 98° (E) 08:28:03 437.405
PCSat 22 Jan 08:27:22 08:28:47 11° 45° (NE) 08:30:09 145.827
AAUSAT CUBESAT 2 22 Jan 08:29:26 08:33:21 38° 98° (E) 08:37:13 437.432
CINEMA 3 22 Jan 08:31:46 08:35:29 31° 287° (WNW) 08:39:18 145.822/145.860
NOAA 18 22 Jan 08:34:19 08:38:34 24° 294° (WNW) 08:42:50 137.9125
Cosmos 2499 22 Jan 08:40:01 08:45:10 22° 276° (W) 08:50:19 435.465 / 435.565
RS-15 22 Jan 08:40:11 08:52:30 68° 57° (ENE) 09:04:16 29.354- 29.394
STRAND 1 22 Jan 08:47:03 08:47:49 10° 269° (W) 08:48:35 437.568
Oscar 11 22 Jan 08:48:14 08:51:45 23° 96° (E) 08:55:14 145.826/435.025
ANTELSAT 22 Jan 08:50:10 08:51:59 13° 66° (ENE) 08:53:48 437.575/2403.000
PRISM 22 Jan 08:54:59 08:59:02 54° 74° (ENE) 09:03:07 437.425
HO-68 22 Jan 09:05:24 09:12:15 50° 291° (WNW) 09:19:03 435.675
GONETS M04 22 Jan 09:12:11 09:18:26 22° 279° (W) 09:24:43
CUBEBUG 2 22 Jan 09:12:41 09:16:55 49° 285° (WNW) 09:21:17 437.445
CUTE 1.7 + AOD 2 22 Jan 09:18:40 09:21:30 17° 292° (WNW) 09:24:19 437.475
FUNcube-1 22 Jan 09:26:32 09:30:59 77° 102° (ESE) 09:35:28 145.935
DELFI C3 22 Jan 09:29:25 09:32:27 21° 95° (E) 09:35:27 145.870
UWE-3 22 Jan 09:36:55 09:41:05 42° 286° (WNW) 09:45:21 435.000/436.395/437.385
HUMSAT D 22 Jan 09:44:55 09:47:53 18° 94° (E) 09:50:51 437.325/437.525
ZACube-1 22 Jan 09:50:58 09:55:15 50° 285° (WNW) 09:59:37 437.345
UNISAT 6 22 Jan 09:55:28 09:59:43 78° 77° (ENE) 10:03:59 437.425
COMPASS 1 22 Jan 09:57:00 09:59:16 14° 293° (WNW) 10:01:33 437.405
AAUSAT CUBESAT 2 22 Jan 10:06:07 10:08:27 15° 293° (WNW) 10:10:46 437.432
PCSat 22 Jan 10:07:37 10:13:04 76° 63° (ENE) 10:18:29 145.827
TIGRISAT 22 Jan 10:08:11 10:12:26 80° 260° (W) 10:16:41 435.000
ANTELSAT 22 Jan 10:24:09 10:28:15 47° 260° (W) 10:32:22 437.575/2403.000
Oscar 11 22 Jan 10:24:12 10:27:46 25° 290° (WNW) 10:31:21 145.826/435.025
JAS-2 22 Jan 10:27:10 10:32:16 50° 71° (ENE) 10:37:52 435.910
RS-15 22 Jan 10:53:56 11:03:59 32° 257° (WSW) 11:13:44 29.354- 29.394
QB50P1 22 Jan 10:57:53 11:01:37 32° 72° (ENE) 11:05:21 145.935-145.965
POLYITAN 1 22 Jan 11:02:36 11:06:27 37° 72° (ENE) 11:10:18 437.675
QB50P2 22 Jan 11:03:49 11:07:45 41° 73° (ENE) 11:11:43 145.880/145.840
DELFI C3 22 Jan 11:03:58 11:07:10 23° 289° (WNW) 11:10:19 145.870
ESTCUBE 1 22 Jan 11:10:29 11:13:53 21° 95° (E) 11:17:16 437.505/2401.250
HUMSAT D 22 Jan 11:19:42 11:23:30 32° 288° (WNW) 11:27:20 437.325/437.525
POPSAT HIP 1 22 Jan 11:24:32 11:28:41 68° 76° (ENE) 11:32:51 437.405
DUCHIFAT 1 22 Jan 11:32:39 11:36:47 73° 76° (ENE) 11:40:56 145.980
Cosmos 2491 22 Jan 11:34:06 11:35:52 11° 61° (ENE) 11:37:37 435.465 / 435.565
NANOSAT C BR1 22 Jan 11:39:18 11:43:28 84° 255° (WSW) 11:47:40 145.865
BY70-1 22 Jan 11:39:37 11:42:48 68° 283° (WNW) 11:45:44 436.1900
CUBEBUG 1 22 Jan 11:53:04 11:57:02 35° 98° (E) 12:00:58 437.445
PCSat 22 Jan 11:53:59 11:55:43 11° 258° (WSW) 11:57:27 145.827
BUGSAT 1 22 Jan 11:58:46 12:02:41 47° 74° (ENE) 12:06:34 437.445
JAS-2 22 Jan 12:14:25 12:17:48 17° 269° (W) 12:21:21 435.910
AISAT 22 Jan 12:15:03 12:19:11 39° 99° (E) 12:23:16 437.250
50 SAT 22 Jan 12:22:25 12:25:36 31° 98° (E) 12:28:46 437.505
QB50P1 22 Jan 12:34:41 12:37:25 17° 266° (W) 12:40:10 145.935-145.965
POLYITAN 1 22 Jan 12:39:59 12:42:20 15° 266° (W) 12:44:41 437.675
QB50P2 22 Jan 12:41:42 12:43:42 13° 267° (W) 12:45:42 145.880/145.840
ESTCUBE 1 22 Jan 12:46:42 12:50:41 31° 289° (WNW) 12:54:37 437.505/2401.250
CUSAT 1 22 Jan 12:47:11 12:51:37 16° 63° (ENE) 12:55:50 437.405
VELOX 1 22 Jan 12:48:06 12:52:30 86° 288° (WNW) 12:56:53 145.980
SPROUT 22 Jan 13:00:33 13:04:48 82° 285° (WNW) 13:09:04 437.525
AO-7 22 Jan 13:03:50 13:05:48 11° 48° (NE) 13:07:45 29.400- 29.500
UKube-1 22 Jan 13:07:47 13:11:57 49° 100° (E) 13:16:07 .
DX 1 22 Jan 13:12:57 13:17:18 83° 102° (ESE) 13:21:37 434.975-435.025
Oscar 19 22 Jan 13:14:07 13:19:19 83° 76° (ENE) 13:24:33 437.125/150
AIST 1 22 Jan 13:19:09 13:22:36 23° 89° (E) 13:26:03
Cosmos 2504 22 Jan 13:23:38 13:27:23 14° 79° (E) 13:31:03 435.465 / 435.565
JUGNU 22 Jan 13:24:13 13:27:05 14° 170° (S) 13:29:57 437.505
Cosmos 2491 22 Jan 13:25:37 13:34:24 68° 81° (E) 13:43:09 435.465 / 435.565
YUBILEINY 22 Jan 13:27:55 13:35:26 33° 85° (E) 13:42:57 435.215
CUBEBUG 1 22 Jan 13:30:13 13:33:00 17° 292° (WNW) 13:35:47 437.445
BUGSAT 1 22 Jan 13:37:30 13:38:15 10° 268° (W) 13:39:00 437.445
AO-85 22 Jan 13:38:16 13:43:06 87° 302° (WNW) 13:47:34 145.980
Gurwin Techsat 1B 22 Jan 13:45:51 13:51:09 87° 76° (ENE) 13:56:29 435.225
AISAT 22 Jan 13:52:39 13:55:17 16° 293° (WNW) 13:57:54 437.250
50 SAT 22 Jan 13:56:57 13:58:29 12° 292° (WNW) 14:00:00 437.505
DANDE 22 Jan 13:57:03 14:03:00 22° 69° (ENE) 14:09:05 436.750
ITAMSAT 1 22 Jan 14:03:11 14:07:14 24° 67° (ENE) 14:11:19 435.822/435.867
